FW9475 Weather Reports


time (UTC)temp
C
wind
direction
speed
KPH
gust
KPH
rain 1hr
cm
rain 24hr
cm
rain mn
cm
humidity
%
barometer
mb
20260505214602 10 0 0.0 1.6 0.00 0.00 0.00 78 1020.0
20260505213100 10 0 0.0 1.6 0.00 0.00 0.00 77 1020.1
20260505211557 11 0 0.0 1.6 0.00 0.00 0.00 76 1020.1
20260505210048 11 0 0.0 3.2 0.00 0.00 0.00 75 1020.0
20260505204549 11 0 0.0 3.2 0.00 0.00 0.00 75 1020.0
20260505203054 11 0 0.0 3.2 0.00 0.00 0.00 74 1019.9
20260505201553 11 204 0.0 3.2 0.00 0.00 0.00 74 1019.9
20260505200054 11 207 0.0 4.8 0.00 0.00 0.00 73 1019.8
20260505194607 11 0 0.0 1.6 0.00 0.00 0.00 72 1019.6
20260505193057 12 198 0.0 3.2 0.00 0.00 0.00 71 1019.6
20260505191554 12 258 0.0 8.0 0.00 0.00 0.00 69 1019.4
20260505190050 12 239 0.0 6.4 0.00 0.00 0.00 68 1019.4
20260505184553 12 242 0.0 4.8 0.00 0.00 0.00 68 1019.4
20260505183052 13 240 0.0 12.9 0.00 0.00 0.00 67 1019.3
20260505181550 13 267 0.0 6.4 0.00 0.00 0.00 66 1019.3
20260505180057 13 269 1.6 4.8 0.00 0.00 0.00 64 1019.2
20260505174604 13 213 0.0 9.7 0.00 0.00 0.00 64 1019.3
20260505173048 13 143 1.6 11.3 0.00 0.00 0.00 65 1019.3
20260505171548 13 155 1.6 11.3 0.00 0.00 0.00 63 1019.3
20260505170126 14 107 1.6 9.7 0.00 0.00 0.00 62 1019.4
20260505164550 14 253 1.6 6.4 0.00 0.00 0.00 60 1019.4
20260505163052 15 207 1.6 8.0 0.00 0.00 0.00 59 1019.3
20260505161601 15 170 1.6 14.5 0.00 0.00 0.00 59 1019.2
20260505153059 16 149 1.6 4.8 0.00 0.00 0.00 56 1019.3
20260505151551 16 192 3.2 8.0 0.00 0.00 0.00 56 1019.3
20260505124551 16 84 1.6 6.4 0.00 0.00 0.00 53 1019.7
20260505123108 15 225 1.6 8.0 0.00 0.00 0.00 54 1019.7
20260505121549 16 171 1.6 9.7 0.00 0.00 0.00 53 1019.7
20260505120050 15 24 0.0 11.3 0.00 0.00 0.00 56 1019.8
20260505114611 15 217 0.0 8.0 0.00 0.00 0.00 57 1019.9
20260505113049 16 227 3.2 14.5 0.00 0.00 0.00 54 1019.9
20260505111604 15 259 1.6 6.4 0.00 0.00 0.00 56 1020.0
20260505101552 13 50 1.6 8.0 0.00 0.00 0.00 66 1020.4
20260505100055 13 179 0.0 6.4 0.00 0.00 0.00 67 1020.4
20260505094551 13 22 1.6 11.3 0.00 0.00 0.00 69 1020.5
20260505093050 12 226 1.6 4.8 0.00 0.00 0.00 73 1020.6
20260505091551 11 155 1.6 6.4 0.00 0.00 0.00 73 1020.6
20260505090055 11 219 0.0 4.8 0.00 0.00 0.00 74 1020.7
20260505084553 11 225 1.6 11.3 0.00 0.00 0.00 77 1020.8
20260505083101 11 144 1.6 6.4 0.00 0.00 0.00 80 1020.9
20260505081555 10 215 0.0 4.8 0.00 0.00 0.00 81 1021.0
20260505080051 10 209 0.0 4.8 0.00 0.00 0.00 83 1020.9
20260505074550 10 220 0.0 4.8 0.00 0.00 0.00 83 1020.9
20260505073049 10 231 0.0 4.8 0.00 0.00 0.00 85 1020.9
20260505071551 10 30 0.0 4.8 0.00 0.00 0.00 86 1020.8
20260505070053 9 84 0.0 4.8 0.00 0.00 0.00 87 1020.8
20260505064600 9 0 0.0 8.0 0.00 0.00 0.00 90 1020.8
20260505063055 8 0 0.0 1.6 0.00 0.00 0.00 93 1020.6
20260505061553 8 0 0.0 1.6 0.00 0.00 0.00 94 1020.7
20260505060056 8 0 0.0 0.0 0.00 0.00 0.00 94 1020.9
20260505054603 7 0 0.0 0.0 0.00 0.00 0.00 94 1020.9
20260505053110 7 0 0.0 0.0 0.00 0.00 0.00 94 1021.1
20260505051550 7 0 0.0 0.0 0.00 0.00 0.00 94 1021.0
20260505041611 7 0 0.0 0.0 0.00 0.00 0.00 93 1020.6
20260505040053 7 0 0.0 0.0 0.00 0.00 0.00 93 1020.6
20260505034553 7 0 0.0 0.0 0.00 0.00 0.00 92 1020.6
20260505033051 7 0 0.0 1.6 0.00 0.00 0.00 92 1020.7
20260505031600 7 0 0.0 1.6 0.00 0.00 0.00 92 1020.8
20260505030052 8 0 0.0 3.2 0.00 0.00 0.00 92 1020.8
20260505024555 8 0 0.0 1.6 0.00 0.00 0.00 92 1020.7
20260505023057 8 0 0.0 0.0 0.00 0.00 0.00 92 1020.7
20260505021551 8 0 0.0 1.6 0.00 0.00 0.00 92 1020.9
20260505020048 8 0 0.0 0.0 0.00 0.00 0.00 92 1021.0
20260505014551 8 0 0.0 0.0 0.00 0.00 0.00 92 1021.1
20260505013052 8 0 0.0 0.0 0.00 0.00 0.00 92 1021.2
20260505011550 7 0 0.0 0.0 0.00 0.00 0.00 92 1021.3
20260505010050 7 0 0.0 1.6 0.00 0.00 0.00 93 1021.3
20260505004552 7 0 0.0 0.0 0.00 0.00 0.00 92 1021.3
20260505003056 7 0 0.0 1.6 0.00 0.00 0.00 92 1021.3
20260505001553 7 0 0.0 1.6 0.00 0.00 0.00 91 1021.4
20260505000100 7 0 0.0 0.0 0.00 0.00 0.00 91 1021.6
20260504234602 7 0 0.0 0.0 0.00 0.00 0.00 90 1021.6
20260504233048 7 0 0.0 0.0 0.00 0.00 0.00 90 1021.7
20260504231601 8 0 0.0 0.0 0.00 0.00 0.00 89 1021.5
20260504230057 8 0 0.0 0.0 0.00 0.00 0.00 90 1021.5
20260504224556 8 0 0.0 1.6 0.00 0.03 0.00 89 1021.5
20260504223051 8 0 0.0 0.0 0.00 0.03 0.00 89 1021.6
20260504221558 8 0 0.0 0.0 0.00 0.03 0.00 88 1021.7
20260504220050 9 0 0.0 0.0 0.00 0.03 0.00 88 1021.7